Weather in Bohicon

Benin     7°10′30″N   2°03′55″E
temp.,
°C
wind,
m/s
gust,
m/s
humid.,
%
clouds,
%
prec.,
mm/h
press.,
hPa
HPBL,
m
12 august, fri
fri1201:00+23ssw2783100 0.0 1013361
04:00+23ssw2885100 0.0 1011418
07:00+22sw278769 0.0 1013394
10:00+26sw467388 0.1 1014700
13:00+29wsw3464100 1.2 10131237
16:00+27wsw3471100 5.0 1011746
19:00+24ssw2484100 7.8 1012152
22:00+23ssw2687100 0.0 1014241
13 august, sat
sat1301:00+22s288891 0.0 1014346
04:00+21ssw3989100 0.0 1013424
07:00+21ssw289025 0.0 1014376
10:00+24sw477799 0.0 1015617
13:00+26wsw466891 0.0 1014758
16:00+28wsw566442 0.6 10111078
19:00+24sw258553 4.8 1013143
22:00+22ssw3790100 0.3 1015283
14 august, sun
sun1401:00+22sw2892100 0.4 1015390
04:00+22sw2795100 0.4 1013354
07:00+21sw2896100 0.6 1013368
10:00+23sw498999 0.3 1014640
13:00+24sw3686100 1.6 1013697
16:00+23ssw3694100 4.5 1011388
19:00+22sw4997100 10.4 1011588
22:00+22ssw3897100 4.4 1013435
15 august, mon
mon1501:00+21ssw4997100 5.6 1013517
04:00+21sw41097100 0.5 1011582
07:00+21sw41094100 0.6 1012582
10:00+22sw5109174 0.0 1013675
13:00+25sw588084 0.3 1012935
16:00+24sw488674 1.2 1011811
19:00+22ssw4990100 1.3 1012596
22:00+22ssw399297 0.0 1014598
16 august, tue
tue1601:00+21ssw4119450 0.0 1013600
04:00+21ssw3994100 0.0 1012662
07:00+21sw31093100 0.0 1013609
10:00+24ssw478299 0.1 1015815
13:00+26sw577464 0.9 10141011
16:00+27ssw4771100 0.8 10111102
19:00+24s367962 0.9 1012241
22:00+22ssw398123 0.0 1015406